Year,Month,Day,Hour,Minute,Value (Times are PST for temperature in C)
2015,03,28,00,00,10.10
2015,03,28,00,01,10.10
2015,03,28,00,02,10.00
2015,03,28,00,03,10.00
2015,03,28,00,04,10.00
2015,03,28,00,05,10.00
2015,03,28,00,06,10.00
2015,03,28,00,07,10.00
2015,03,28,00,08,10.00
2015,03,28,00,09,10.00
2015,03,28,00,10,10.00
2015,03,28,00,11,10.00
2015,03,28,00,12,10.00
2015,03,28,00,13,10.00
2015,03,28,00,14,10.00
2015,03,28,00,15,10.00
2015,03,28,00,16,10.00
2015,03,28,00,17,10.00
2015,03,28,00,18,10.00
2015,03,28,00,19,10.00
2015,03,28,00,20,10.00
2015,03,28,00,21,10.00
2015,03,28,00,22,10.00
2015,03,28,00,23,10.00
2015,03,28,00,24,10.00
2015,03,28,00,25,10.00
2015,03,28,00,26,10.00
2015,03,28,00,27,10.00
2015,03,28,00,28,10.00
2015,03,28,00,29,10.00
2015,03,28,00,30,9.90
2015,03,28,00,31,9.90
2015,03,28,00,32,9.80
2015,03,28,00,33,9.80
2015,03,28,00,34,9.80
2015,03,28,00,35,9.80
2015,03,28,00,36,9.70
2015,03,28,00,37,9.70
2015,03,28,00,38,9.70
2015,03,28,00,39,9.70
2015,03,28,00,40,9.70
2015,03,28,00,41,9.70
2015,03,28,00,42,9.70
2015,03,28,00,43,9.70
2015,03,28,00,44,9.70
2015,03,28,00,45,9.60
2015,03,28,00,46,9.60
2015,03,28,00,47,9.60
2015,03,28,00,48,9.60
2015,03,28,00,49,9.60
2015,03,28,00,50,9.60
2015,03,28,00,51,9.60
2015,03,28,00,52,9.60
2015,03,28,00,53,9.60
2015,03,28,00,54,9.60
2015,03,28,00,55,9.60
2015,03,28,00,56,9.60
2015,03,28,00,57,9.60
2015,03,28,00,58,9.50
2015,03,28,00,59,9.50
2015,03,28,01,00,9.50
2015,03,28,01,01,9.50
2015,03,28,01,02,9.50
2015,03,28,01,03,9.50
2015,03,28,01,04,9.50
2015,03,28,01,05,9.50
2015,03,28,01,06,9.50
2015,03,28,01,07,9.50
2015,03,28,01,08,9.50
2015,03,28,01,09,9.50
2015,03,28,01,10,9.50
2015,03,28,01,11,9.40
2015,03,28,01,12,9.50
2015,03,28,01,13,9.40
2015,03,28,01,14,9.40
2015,03,28,01,15,9.40
2015,03,28,01,16,9.40
2015,03,28,01,17,9.40
2015,03,28,01,18,9.40
2015,03,28,01,19,9.40
2015,03,28,01,20,9.40
2015,03,28,01,21,9.40
2015,03,28,01,22,9.40
2015,03,28,01,23,9.40
2015,03,28,01,24,9.40
2015,03,28,01,25,9.40
2015,03,28,01,26,9.40
2015,03,28,01,27,9.40
2015,03,28,01,28,9.40
2015,03,28,01,29,9.40
2015,03,28,01,30,9.40
2015,03,28,01,31,9.40
2015,03,28,01,32,9.40
2015,03,28,01,33,9.40
2015,03,28,01,34,9.40
2015,03,28,01,35,9.50
2015,03,28,01,36,9.40
2015,03,28,01,37,9.40
2015,03,28,01,38,9.40
2015,03,28,01,39,9.40
2015,03,28,01,40,9.40
2015,03,28,01,41,9.50
2015,03,28,01,42,9.40
2015,03,28,01,43,9.50
2015,03,28,01,44,9.50
2015,03,28,01,45,9.50
2015,03,28,01,46,9.50
2015,03,28,01,47,9.50
2015,03,28,01,48,9.50
2015,03,28,01,49,9.50
2015,03,28,01,50,9.50
2015,03,28,01,51,9.50
2015,03,28,01,52,9.50
2015,03,28,01,53,9.50
2015,03,28,01,54,9.50
2015,03,28,01,55,9.50
2015,03,28,01,56,9.60
2015,03,28,01,57,9.60
2015,03,28,01,58,9.60
2015,03,28,01,59,9.60
2015,03,28,02,00,9.60
2015,03,28,02,01,9.60
2015,03,28,02,02,9.60
2015,03,28,02,03,9.60
2015,03,28,02,04,9.60
2015,03,28,02,05,9.60
2015,03,28,02,06,9.50
2015,03,28,02,07,9.50
2015,03,28,02,08,9.40
2015,03,28,02,09,9.40
2015,03,28,02,10,9.40
2015,03,28,02,11,9.30
2015,03,28,02,12,9.30
2015,03,28,02,13,9.30
2015,03,28,02,14,9.30
2015,03,28,02,15,9.20
2015,03,28,02,16,9.20
2015,03,28,02,17,9.20
2015,03,28,02,18,9.20
2015,03,28,02,19,9.10
2015,03,28,02,20,9.10
2015,03,28,02,21,9.10
2015,03,28,02,22,9.00
2015,03,28,02,23,9.00
2015,03,28,02,24,9.00
2015,03,28,02,25,9.00
2015,03,28,02,26,8.90
2015,03,28,02,27,8.90
2015,03,28,02,28,8.90
2015,03,28,02,29,8.90
2015,03,28,02,30,8.90
2015,03,28,02,31,8.80
2015,03,28,02,32,8.80
2015,03,28,02,33,8.80
2015,03,28,02,34,8.80
2015,03,28,02,35,8.80
2015,03,28,02,36,8.80
2015,03,28,02,37,8.80
2015,03,28,02,38,8.80
2015,03,28,02,39,8.70
2015,03,28,02,40,8.70
2015,03,28,02,41,8.70
2015,03,28,02,42,8.70
2015,03,28,02,43,8.70
2015,03,28,02,44,8.70
2015,03,28,02,45,8.60
2015,03,28,02,46,8.60
2015,03,28,02,47,8.60
2015,03,28,02,48,8.60
2015,03,28,02,49,8.60
2015,03,28,02,50,8.60
2015,03,28,02,51,8.60
2015,03,28,02,52,8.60
2015,03,28,02,53,8.60
2015,03,28,02,54,8.60
2015,03,28,02,55,8.60
2015,03,28,02,56,8.60
2015,03,28,02,57,8.60
2015,03,28,02,58,8.60
2015,03,28,02,59,8.50
2015,03,28,03,00,8.60
2015,03,28,03,01,8.50
2015,03,28,03,02,8.50
2015,03,28,03,03,8.50
2015,03,28,03,04,8.50
2015,03,28,03,05,8.50
2015,03,28,03,06,8.60
2015,03,28,03,07,8.50
2015,03,28,03,08,8.60
2015,03,28,03,09,8.50
2015,03,28,03,10,8.50
2015,03,28,03,11,8.50
2015,03,28,03,12,8.50
2015,03,28,03,13,8.50
2015,03,28,03,14,8.50
2015,03,28,03,15,8.50
2015,03,28,03,16,8.50
2015,03,28,03,17,8.50
2015,03,28,03,18,8.50
2015,03,28,03,19,8.50
2015,03,28,03,20,8.50
2015,03,28,03,21,8.50
2015,03,28,03,22,8.50
2015,03,28,03,23,8.50
2015,03,28,03,24,8.50
2015,03,28,03,25,8.50
2015,03,28,03,26,8.50
2015,03,28,03,27,8.50
2015,03,28,03,28,8.50
2015,03,28,03,29,8.50
2015,03,28,03,30,8.50
2015,03,28,03,31,8.50
2015,03,28,03,32,8.50
2015,03,28,03,33,8.50
2015,03,28,03,34,8.50
2015,03,28,03,35,8.50
2015,03,28,03,36,8.50
2015,03,28,03,37,8.50
2015,03,28,03,38,8.60
2015,03,28,03,39,8.60
2015,03,28,03,40,8.60
2015,03,28,03,41,8.60
2015,03,28,03,42,8.60
2015,03,28,03,43,8.60
2015,03,28,03,44,8.60
2015,03,28,03,45,8.60
2015,03,28,03,46,8.60
2015,03,28,03,47,8.60
2015,03,28,03,48,8.60
2015,03,28,03,49,8.50
2015,03,28,03,50,8.50
2015,03,28,03,51,8.50
2015,03,28,03,52,8.50
2015,03,28,03,53,8.50
2015,03,28,03,54,8.50
2015,03,28,03,55,8.50
2015,03,28,03,56,8.50
2015,03,28,03,57,8.50
2015,03,28,03,58,8.40
2015,03,28,03,59,8.40
2015,03,28,04,00,8.40
2015,03,28,04,01,8.40
2015,03,28,04,02,8.40
2015,03,28,04,03,8.40
2015,03,28,04,04,8.30
2015,03,28,04,05,8.30
2015,03,28,04,06,8.30
2015,03,28,04,07,8.30
2015,03,28,04,08,8.30
2015,03,28,04,09,8.20
2015,03,28,04,10,8.20
2015,03,28,04,11,8.20
2015,03,28,04,12,8.20
2015,03,28,04,13,8.10
2015,03,28,04,14,8.10
2015,03,28,04,15,8.10
2015,03,28,04,16,8.00
2015,03,28,04,17,8.00
2015,03,28,04,18,8.00
2015,03,28,04,19,7.90
2015,03,28,04,20,7.90
2015,03,28,04,21,7.90
2015,03,28,04,22,7.90
2015,03,28,04,23,7.90
2015,03,28,04,24,7.80
2015,03,28,04,25,7.80
2015,03,28,04,26,7.80
2015,03,28,04,27,7.80
2015,03,28,04,28,7.80
2015,03,28,04,29,7.80
2015,03,28,04,30,7.80
2015,03,28,04,31,7.70
2015,03,28,04,32,7.70
2015,03,28,04,33,7.70
2015,03,28,04,34,7.60
2015,03,28,04,35,7.60
2015,03,28,04,36,7.60
2015,03,28,04,37,7.50
2015,03,28,04,38,7.50
2015,03,28,04,39,7.40
2015,03,28,04,40,7.40
2015,03,28,04,41,7.40
2015,03,28,04,42,7.40
2015,03,28,04,43,7.30
2015,03,28,04,44,7.30
2015,03,28,04,45,7.30
2015,03,28,04,46,7.30
2015,03,28,04,47,7.30
2015,03,28,04,48,7.20
2015,03,28,04,49,7.20
2015,03,28,04,50,7.20
2015,03,28,04,51,7.20
2015,03,28,04,52,7.20
2015,03,28,04,53,7.20
2015,03,28,04,54,7.10
2015,03,28,04,55,7.10
2015,03,28,04,56,7.10
2015,03,28,04,57,7.10
2015,03,28,04,58,7.10
2015,03,28,04,59,7.10
2015,03,28,05,00,7.00
2015,03,28,05,01,7.00
2015,03,28,05,02,7.00
2015,03,28,05,03,7.00
2015,03,28,05,04,6.90
2015,03,28,05,05,6.90
2015,03,28,05,06,6.90
2015,03,28,05,07,6.90
2015,03,28,05,08,6.90
2015,03,28,05,09,6.90
2015,03,28,05,10,6.90
2015,03,28,05,11,6.90
2015,03,28,05,12,6.90
2015,03,28,05,13,6.90
2015,03,28,05,14,6.90
2015,03,28,05,15,6.90
2015,03,28,05,16,6.80
2015,03,28,05,17,6.80
2015,03,28,05,18,6.80
2015,03,28,05,19,6.70
2015,03,28,05,20,6.70
2015,03,28,05,21,6.70
2015,03,28,05,22,6.60
2015,03,28,05,23,6.60
2015,03,28,05,24,6.60
2015,03,28,05,25,6.60
2015,03,28,05,26,6.60
2015,03,28,05,27,6.60
2015,03,28,05,28,6.60
2015,03,28,05,29,6.60
2015,03,28,05,30,6.50
2015,03,28,05,31,6.50
2015,03,28,05,32,6.50
2015,03,28,05,33,6.40
2015,03,28,05,34,6.40
2015,03,28,05,35,6.40
2015,03,28,05,36,6.40
2015,03,28,05,37,6.40
2015,03,28,05,38,6.40
2015,03,28,05,39,6.40
2015,03,28,05,40,6.40
2015,03,28,05,41,6.40
2015,03,28,05,42,6.40
2015,03,28,05,43,6.30
2015,03,28,05,44,6.30
2015,03,28,05,45,6.40
2015,03,28,05,46,6.40
2015,03,28,05,47,6.40
2015,03,28,05,48,6.50
2015,03,28,05,49,6.50
2015,03,28,05,50,6.50
2015,03,28,05,51,6.60
2015,03,28,05,52,6.60
2015,03,28,05,53,6.60
2015,03,28,05,54,6.60
2015,03,28,05,55,6.60
2015,03,28,05,56,6.60
2015,03,28,05,57,6.60
2015,03,28,05,58,6.50
2015,03,28,05,59,6.50
2015,03,28,06,00,6.40
2015,03,28,06,01,6.40
2015,03,28,06,02,6.30
2015,03,28,06,03,6.30
2015,03,28,06,04,6.30
2015,03,28,06,05,6.20
2015,03,28,06,06,6.20
2015,03,28,06,07,6.20
2015,03,28,06,08,6.10
2015,03,28,06,09,6.10
2015,03,28,06,10,6.10
2015,03,28,06,11,6.10
2015,03,28,06,12,6.10
2015,03,28,06,13,6.00
2015,03,28,06,14,6.00
2015,03,28,06,15,5.90
2015,03,28,06,16,5.90
2015,03,28,06,17,5.90
2015,03,28,06,18,5.90
2015,03,28,06,19,5.90
2015,03,28,06,20,5.80
2015,03,28,06,21,5.80
2015,03,28,06,22,5.80
2015,03,28,06,23,5.80
2015,03,28,06,24,5.80
2015,03,28,06,25,5.80
2015,03,28,06,26,5.80
2015,03,28,06,27,5.80
2015,03,28,06,28,5.80
2015,03,28,06,29,5.80
2015,03,28,06,30,5.80
2015,03,28,06,31,5.80
2015,03,28,06,32,5.80
2015,03,28,06,33,5.80
2015,03,28,06,34,5.70
2015,03,28,06,35,5.70
2015,03,28,06,36,5.70
2015,03,28,06,37,5.70
2015,03,28,06,38,5.70
2015,03,28,06,39,5.70
2015,03,28,06,40,5.70
2015,03,28,06,41,5.70
2015,03,28,06,42,5.60
2015,03,28,06,43,5.60
2015,03,28,06,44,5.60
2015,03,28,06,45,5.60
2015,03,28,06,46,5.60
2015,03,28,06,47,5.60
2015,03,28,06,48,5.60
2015,03,28,06,49,5.60
2015,03,28,06,50,5.50
2015,03,28,06,51,5.50
2015,03,28,06,52,5.50
2015,03,28,06,53,5.50
2015,03,28,06,54,5.50
2015,03,28,06,55,5.40
2015,03,28,06,56,5.40
2015,03,28,06,57,5.40
2015,03,28,06,58,5.40
2015,03,28,06,59,5.30
2015,03,28,07,00,5.30
2015,03,28,07,01,5.30
2015,03,28,07,02,5.30
2015,03,28,07,03,5.20
2015,03,28,07,04,5.20
2015,03,28,07,05,5.20
2015,03,28,07,06,5.20
2015,03,28,07,07,5.20
2015,03,28,07,08,5.20
2015,03,28,07,09,5.20
2015,03,28,07,10,5.20
2015,03,28,07,11,5.20
2015,03,28,07,12,5.20
2015,03,28,07,13,5.20
2015,03,28,07,14,5.20
2015,03,28,07,15,5.20
2015,03,28,07,16,5.20
2015,03,28,07,17,5.10
2015,03,28,07,18,5.10
2015,03,28,07,19,5.10
2015,03,28,07,20,5.10
2015,03,28,07,21,5.20
2015,03,28,07,22,5.20
2015,03,28,07,23,5.20
2015,03,28,07,24,5.20
2015,03,28,07,25,5.20
2015,03,28,07,26,5.30
2015,03,28,07,27,5.30
2015,03,28,07,28,5.30
2015,03,28,07,29,5.30
2015,03,28,07,30,5.30
2015,03,28,07,31,5.30
2015,03,28,07,32,5.30
2015,03,28,07,33,5.30
2015,03,28,07,34,5.20
2015,03,28,07,35,5.20
2015,03,28,07,36,5.10
2015,03,28,07,37,5.10
2015,03,28,07,38,5.00
2015,03,28,07,39,5.00
2015,03,28,07,40,5.00
2015,03,28,07,41,5.00
2015,03,28,07,42,5.00
2015,03,28,07,43,5.00
2015,03,28,07,44,5.00
2015,03,28,07,45,5.00
2015,03,28,07,46,5.00
2015,03,28,07,47,5.00
2015,03,28,07,48,5.00
2015,03,28,07,49,5.00
2015,03,28,07,50,5.00
2015,03,28,07,51,5.00
2015,03,28,07,52,5.10
2015,03,28,07,53,5.10
2015,03,28,07,54,5.10
2015,03,28,07,55,5.10
2015,03,28,07,56,5.20
2015,03,28,07,57,5.20
2015,03,28,07,58,5.20
2015,03,28,07,59,5.20
2015,03,28,08,00,5.20
2015,03,28,08,01,5.20
2015,03,28,08,02,5.30
2015,03,28,08,03,5.30
2015,03,28,08,04,5.30
2015,03,28,08,05,5.40
2015,03,28,08,06,5.40
2015,03,28,08,07,5.40
2015,03,28,08,08,5.50
2015,03,28,08,09,5.50
2015,03,28,08,10,5.60
2015,03,28,08,11,5.60
2015,03,28,08,12,5.70
2015,03,28,08,13,5.70
2015,03,28,08,14,5.80
2015,03,28,08,15,5.80
2015,03,28,08,16,5.90
2015,03,28,08,17,6.00
2015,03,28,08,18,6.00
2015,03,28,08,19,6.10
2015,03,28,08,20,6.20
2015,03,28,08,21,6.20
2015,03,28,08,22,6.20
2015,03,28,08,23,6.20
2015,03,28,08,24,6.30
2015,03,28,08,25,6.30
2015,03,28,08,26,6.30
2015,03,28,08,27,6.40
2015,03,28,08,28,6.40
2015,03,28,08,29,6.40
2015,03,28,08,30,6.50
2015,03,28,08,31,6.50
2015,03,28,08,32,6.60
2015,03,28,08,33,6.60
2015,03,28,08,34,6.70
2015,03,28,08,35,6.70
2015,03,28,08,36,6.80
2015,03,28,08,37,6.80
2015,03,28,08,38,6.90
2015,03,28,08,39,7.00
2015,03,28,08,40,7.00
2015,03,28,08,41,7.10
2015,03,28,08,42,7.10
2015,03,28,08,43,7.10
2015,03,28,08,44,7.20
2015,03,28,08,45,7.20
2015,03,28,08,46,7.30
2015,03,28,08,47,7.40
2015,03,28,08,48,7.50
2015,03,28,08,49,7.60
2015,03,28,08,50,7.70
2015,03,28,08,51,7.80
2015,03,28,08,52,7.80
2015,03,28,08,53,7.90
2015,03,28,08,54,8.10
2015,03,28,08,55,8.20
2015,03,28,08,56,8.20
2015,03,28,08,57,8.30
2015,03,28,08,58,8.40
2015,03,28,08,59,8.50
2015,03,28,09,00,8.60
2015,03,28,09,01,8.70
2015,03,28,09,02,8.80
2015,03,28,09,03,8.90
2015,03,28,09,04,8.90
2015,03,28,09,05,9.00
2015,03,28,09,06,9.10
2015,03,28,09,07,9.10
2015,03,28,09,08,9.10
2015,03,28,09,09,9.20
2015,03,28,09,10,9.20
2015,03,28,09,11,9.20
2015,03,28,09,12,9.10
2015,03,28,09,13,9.10
2015,03,28,09,14,9.20
2015,03,28,09,15,9.20
2015,03,28,09,16,9.30
2015,03,28,09,17,9.30
2015,03,28,09,18,9.40
2015,03,28,09,19,9.40
2015,03,28,09,20,9.40
2015,03,28,09,21,9.50
2015,03,28,09,22,9.50
2015,03,28,09,23,9.50
2015,03,28,09,24,9.60
2015,03,28,09,25,9.60
2015,03,28,09,26,9.60
2015,03,28,09,27,9.60
2015,03,28,09,28,9.60
2015,03,28,09,29,9.60
2015,03,28,09,30,9.70
2015,03,28,09,31,9.70
2015,03,28,09,32,9.70
2015,03,28,09,33,9.80
2015,03,28,09,34,9.90
2015,03,28,09,35,9.90
2015,03,28,09,36,10.00
2015,03,28,09,37,10.10
2015,03,28,09,38,10.20
2015,03,28,09,39,10.20
2015,03,28,09,40,10.30
2015,03,28,09,41,10.30
2015,03,28,09,42,10.30
2015,03,28,09,43,10.30
2015,03,28,09,44,10.30
2015,03,28,09,45,10.30
2015,03,28,09,46,10.30
2015,03,28,09,47,10.30
2015,03,28,09,48,10.30
2015,03,28,09,49,10.30
2015,03,28,09,50,10.30
2015,03,28,09,51,10.30
2015,03,28,09,52,10.30
2015,03,28,09,53,10.30
2015,03,28,09,54,10.30
2015,03,28,09,55,10.30
2015,03,28,09,56,10.30
2015,03,28,09,57,10.20
2015,03,28,09,58,10.20
2015,03,28,09,59,10.20
2015,03,28,10,00,10.20
2015,03,28,10,01,10.10
2015,03,28,10,02,10.10
2015,03,28,10,03,10.10
2015,03,28,10,04,10.10
2015,03,28,10,05,10.10
2015,03,28,10,06,10.00
2015,03,28,10,07,10.00
2015,03,28,10,08,10.00
2015,03,28,10,09,10.00
2015,03,28,10,10,10.00
2015,03,28,10,11,10.00
2015,03,28,10,12,10.00
2015,03,28,10,13,10.00
2015,03,28,10,14,10.00
2015,03,28,10,15,10.00
2015,03,28,10,16,10.00
2015,03,28,10,17,10.00
2015,03,28,10,18,10.00
2015,03,28,10,19,10.00
2015,03,28,10,20,10.10
2015,03,28,10,21,10.00
2015,03,28,10,22,9.90
2015,03,28,10,23,9.90
2015,03,28,10,24,9.90
2015,03,28,10,25,9.90
2015,03,28,10,26,9.90
2015,03,28,10,27,9.90
2015,03,28,10,28,9.90
2015,03,28,10,29,9.90
2015,03,28,10,30,9.90
2015,03,28,10,31,9.90
2015,03,28,10,32,9.90
2015,03,28,10,33,9.90
2015,03,28,10,34,9.90
2015,03,28,10,35,9.90
2015,03,28,10,36,9.90
2015,03,28,10,37,9.90
2015,03,28,10,38,9.90
2015,03,28,10,39,9.90
2015,03,28,10,40,10.00
2015,03,28,10,41,10.00
2015,03,28,10,42,9.90
2015,03,28,10,43,9.90
2015,03,28,10,44,9.90
2015,03,28,10,45,9.90
2015,03,28,10,46,9.90
2015,03,28,10,47,9.90
2015,03,28,10,48,9.90
2015,03,28,10,49,9.90
2015,03,28,10,50,9.90
2015,03,28,10,51,9.90
2015,03,28,10,52,9.90
2015,03,28,10,53,10.00
2015,03,28,10,54,10.00
2015,03,28,10,55,10.00
2015,03,28,10,56,10.00
2015,03,28,10,57,10.00
2015,03,28,10,58,10.00
2015,03,28,10,59,10.00
2015,03,28,11,00,10.00
2015,03,28,11,01,10.00
2015,03,28,11,02,10.00
2015,03,28,11,03,9.90
2015,03,28,11,04,9.90
2015,03,28,11,05,9.90
2015,03,28,11,06,9.90
2015,03,28,11,07,9.90
2015,03,28,11,08,9.90
2015,03,28,11,09,9.90
2015,03,28,11,10,9.90
2015,03,28,11,11,9.90
2015,03,28,11,12,9.90
2015,03,28,11,13,9.90
2015,03,28,11,14,9.90
2015,03,28,11,15,9.90
2015,03,28,11,16,9.90
2015,03,28,11,17,9.90
2015,03,28,11,18,9.80
2015,03,28,11,19,9.80
2015,03,28,11,20,9.80
2015,03,28,11,21,9.80
2015,03,28,11,22,9.80
2015,03,28,11,23,9.80
2015,03,28,11,24,9.80
2015,03,28,11,25,9.80
2015,03,28,11,26,9.80
2015,03,28,11,27,9.80
2015,03,28,11,28,9.80
2015,03,28,11,29,9.80
2015,03,28,11,30,9.80
2015,03,28,11,31,9.80
2015,03,28,11,32,9.80
2015,03,28,11,33,9.80
2015,03,28,11,34,9.90
2015,03,28,11,35,9.90
2015,03,28,11,36,9.90
2015,03,28,11,37,9.90
2015,03,28,11,38,9.90
2015,03,28,11,39,9.90
2015,03,28,11,40,9.90
2015,03,28,11,41,9.90
2015,03,28,11,42,10.00
2015,03,28,11,43,10.00
2015,03,28,11,44,10.00
2015,03,28,11,45,10.00
2015,03,28,11,46,10.10
2015,03,28,11,47,10.10
2015,03,28,11,48,10.10
2015,03,28,11,49,10.10
2015,03,28,11,50,10.10
2015,03,28,11,51,10.10
2015,03,28,11,52,10.10
2015,03,28,11,53,10.20
2015,03,28,11,54,10.20
2015,03,28,11,55,10.20
2015,03,28,11,56,10.20
2015,03,28,11,57,10.30
2015,03,28,11,58,10.30
2015,03,28,11,59,10.30
2015,03,28,12,00,10.30
2015,03,28,12,01,10.30
2015,03,28,12,02,10.30
2015,03,28,12,03,10.30
2015,03,28,12,04,10.40
2015,03,28,12,05,10.40
2015,03,28,12,06,10.40
2015,03,28,12,07,10.40
2015,03,28,12,08,10.40
2015,03,28,12,09,10.50
2015,03,28,12,10,10.50
2015,03,28,12,11,10.50
2015,03,28,12,12,10.50
2015,03,28,12,13,10.50
2015,03,28,12,14,10.60
2015,03,28,12,15,10.60
2015,03,28,12,16,10.60
2015,03,28,12,17,10.70
2015,03,28,12,18,10.70
2015,03,28,12,19,10.70
2015,03,28,12,20,10.70
2015,03,28,12,21,10.70
2015,03,28,12,22,10.70
2015,03,28,12,23,10.80
2015,03,28,12,24,10.80
2015,03,28,12,25,10.80
2015,03,28,12,26,10.80
2015,03,28,12,27,10.80
2015,03,28,12,28,10.80
2015,03,28,12,29,10.80
2015,03,28,12,30,10.80
2015,03,28,12,31,10.80
2015,03,28,12,32,10.80
2015,03,28,12,33,10.90
2015,03,28,12,34,10.90
2015,03,28,12,35,10.90
2015,03,28,12,36,10.90
2015,03,28,12,37,10.90
2015,03,28,12,38,10.90
2015,03,28,12,39,10.90
2015,03,28,12,40,10.90
2015,03,28,12,41,11.00
2015,03,28,12,42,11.00
2015,03,28,12,43,11.00
2015,03,28,12,44,11.00
2015,03,28,12,45,11.10
2015,03,28,12,46,11.10
2015,03,28,12,47,11.10
2015,03,28,12,48,11.10
2015,03,28,12,49,11.10
2015,03,28,12,50,11.10
2015,03,28,12,51,11.10
2015,03,28,12,52,11.10
2015,03,28,12,53,11.10
2015,03,28,12,54,11.10
2015,03,28,12,55,11.10
2015,03,28,12,56,11.10
2015,03,28,12,57,11.00
2015,03,28,12,58,11.00
2015,03,28,12,59,11.00
2015,03,28,13,00,11.00
2015,03,28,13,01,11.10
2015,03,28,13,02,11.10
2015,03,28,13,03,11.10
2015,03,28,13,04,11.10
2015,03,28,13,05,11.10
2015,03,28,13,06,11.10
2015,03,28,13,07,11.10
2015,03,28,13,08,11.10
2015,03,28,13,09,11.10
2015,03,28,13,10,11.10
2015,03,28,13,11,11.10
2015,03,28,13,12,11.10
2015,03,28,13,13,11.10
2015,03,28,13,14,11.10
2015,03,28,13,15,11.20
2015,03,28,13,16,11.20
2015,03,28,13,17,11.20
2015,03,28,13,18,11.30
2015,03,28,13,19,11.30
2015,03,28,13,20,11.30
2015,03,28,13,21,11.40
2015,03,28,13,22,11.40
2015,03,28,13,23,11.50
2015,03,28,13,24,11.50
2015,03,28,13,25,11.60
2015,03,28,13,26,11.60
2015,03,28,13,27,11.70
2015,03,28,13,28,11.80
2015,03,28,13,29,11.80
2015,03,28,13,30,11.90
2015,03,28,13,31,11.90
2015,03,28,13,32,12.00
2015,03,28,13,33,12.00
2015,03,28,13,34,12.10
2015,03,28,13,35,12.20
2015,03,28,13,36,12.20
2015,03,28,13,37,12.30
2015,03,28,13,38,12.40
2015,03,28,13,39,12.50
2015,03,28,13,40,12.50
2015,03,28,13,41,12.60
2015,03,28,13,42,12.70
2015,03,28,13,43,12.80
2015,03,28,13,44,12.90
2015,03,28,13,45,12.90
2015,03,28,13,46,12.90
2015,03,28,13,47,13.00
2015,03,28,13,48,13.00
2015,03,28,13,49,13.10
2015,03,28,13,50,13.10
2015,03,28,13,51,13.10
2015,03,28,13,52,13.20
2015,03,28,13,53,13.20
2015,03,28,13,54,13.20
2015,03,28,13,55,13.20
2015,03,28,13,56,13.20
2015,03,28,13,57,13.20
2015,03,28,13,58,13.20
2015,03,28,13,59,13.20
2015,03,28,14,00,13.20
2015,03,28,14,01,13.10
2015,03,28,14,02,13.10
2015,03,28,14,03,13.10
2015,03,28,14,04,13.10
2015,03,28,14,05,13.20
2015,03,28,14,06,13.20
2015,03,28,14,07,13.20
2015,03,28,14,08,13.20
2015,03,28,14,09,13.20
2015,03,28,14,10,13.20
2015,03,28,14,11,13.20
2015,03,28,14,12,13.10
2015,03,28,14,13,13.10
2015,03,28,14,14,13.10
2015,03,28,14,15,13.10
2015,03,28,14,16,13.10
2015,03,28,14,17,13.10
2015,03,28,14,18,13.10
2015,03,28,14,19,13.10
2015,03,28,14,20,13.20
2015,03,28,14,21,13.30
2015,03,28,14,22,13.40
2015,03,28,14,23,13.50
2015,03,28,14,24,13.70
2015,03,28,14,25,13.80
2015,03,28,14,26,13.90
2015,03,28,14,27,14.00
2015,03,28,14,28,14.00
2015,03,28,14,29,14.00
2015,03,28,14,30,13.90
2015,03,28,14,31,13.90
2015,03,28,14,32,13.90
2015,03,28,14,33,13.90
2015,03,28,14,34,13.80
2015,03,28,14,35,13.80
2015,03,28,14,36,13.70
2015,03,28,14,37,13.70
2015,03,28,14,38,13.60
2015,03,28,14,39,13.50
2015,03,28,14,40,13.50
2015,03,28,14,41,13.40
2015,03,28,14,42,13.40
2015,03,28,14,43,13.40
2015,03,28,14,44,13.40
2015,03,28,14,45,13.30
2015,03,28,14,46,13.30
2015,03,28,14,47,13.30
2015,03,28,14,48,13.30
2015,03,28,14,49,13.30
2015,03,28,14,50,13.30
2015,03,28,14,51,13.30
2015,03,28,14,52,13.30
2015,03,28,14,53,13.30
2015,03,28,14,54,13.30
2015,03,28,14,55,13.30
2015,03,28,14,56,13.30
2015,03,28,14,57,13.30
2015,03,28,14,58,13.40
2015,03,28,14,59,13.40
2015,03,28,15,00,13.40
2015,03,28,15,01,13.40
2015,03,28,15,02,13.40
2015,03,28,15,03,13.40
2015,03,28,15,04,13.50
2015,03,28,15,05,13.50
2015,03,28,15,06,13.50
2015,03,28,15,07,13.40
2015,03,28,15,08,13.40
2015,03,28,15,09,13.40
2015,03,28,15,10,13.30
2015,03,28,15,11,13.30
2015,03,28,15,12,13.20
2015,03,28,15,13,13.20
2015,03,28,15,14,13.20
2015,03,28,15,15,13.10
2015,03,28,15,16,13.00
2015,03,28,15,17,13.00
2015,03,28,15,18,12.90
2015,03,28,15,19,12.90
2015,03,28,15,20,12.80
2015,03,28,15,21,12.80
2015,03,28,15,22,12.70
2015,03,28,15,23,12.70
2015,03,28,15,24,12.70
2015,03,28,15,25,12.70
2015,03,28,15,26,12.60
2015,03,28,15,27,12.60
2015,03,28,15,28,12.60
2015,03,28,15,29,12.60
2015,03,28,15,30,12.50
2015,03,28,15,31,12.50
2015,03,28,15,32,12.60
2015,03,28,15,33,12.60
2015,03,28,15,34,12.60
2015,03,28,15,35,12.60
2015,03,28,15,36,12.50
2015,03,28,15,37,12.50
2015,03,28,15,38,12.50
2015,03,28,15,39,12.50
2015,03,28,15,40,12.50
2015,03,28,15,41,12.50
2015,03,28,15,42,12.40
2015,03,28,15,43,12.40
2015,03,28,15,44,12.40
2015,03,28,15,45,12.40
2015,03,28,15,46,12.40
2015,03,28,15,47,12.30
2015,03,28,15,48,12.30
2015,03,28,15,49,12.30
2015,03,28,15,50,12.30
2015,03,28,15,51,12.20
2015,03,28,15,52,12.20
2015,03,28,15,53,12.10
2015,03,28,15,54,12.00
2015,03,28,15,55,11.90
2015,03,28,15,56,11.90
2015,03,28,15,57,11.80
2015,03,28,15,58,11.80
2015,03,28,15,59,11.70
2015,03,28,16,00,11.70
2015,03,28,16,01,11.70
2015,03,28,16,02,11.60
2015,03,28,16,03,11.60
2015,03,28,16,04,11.60
2015,03,28,16,05,11.60
2015,03,28,16,06,11.50
2015,03,28,16,07,11.50
2015,03,28,16,08,11.40
2015,03,28,16,09,11.40
2015,03,28,16,10,11.40
2015,03,28,16,11,11.30
2015,03,28,16,12,11.30
2015,03,28,16,13,11.30
2015,03,28,16,14,11.30
2015,03,28,16,15,11.20
2015,03,28,16,16,11.20
2015,03,28,16,17,11.20
2015,03,28,16,18,11.20
2015,03,28,16,19,11.20
2015,03,28,16,20,11.20
2015,03,28,16,21,11.10
2015,03,28,16,22,11.10
2015,03,28,16,23,11.10
2015,03,28,16,24,11.10
2015,03,28,16,25,11.10
2015,03,28,16,26,11.10
2015,03,28,16,27,11.10
2015,03,28,16,28,11.00
2015,03,28,16,29,11.00
2015,03,28,16,30,11.00
2015,03,28,16,31,11.00
2015,03,28,16,32,11.00
2015,03,28,16,33,11.00
2015,03,28,16,34,11.00
2015,03,28,16,35,11.00
2015,03,28,16,36,11.00
2015,03,28,16,37,11.10
2015,03,28,16,38,11.10
2015,03,28,16,39,11.10
2015,03,28,16,40,11.10
2015,03,28,16,41,11.10
2015,03,28,16,42,11.10
2015,03,28,16,43,11.10
2015,03,28,16,44,11.10
2015,03,28,16,45,11.10
2015,03,28,16,46,11.00
2015,03,28,16,47,11.00
2015,03,28,16,48,11.00
2015,03,28,16,49,11.00
2015,03,28,16,50,10.90
2015,03,28,16,51,10.90
2015,03,28,16,52,10.90
2015,03,28,16,53,10.90
2015,03,28,16,54,10.90
2015,03,28,16,55,10.90
2015,03,28,16,56,10.90
2015,03,28,16,57,10.90
2015,03,28,16,58,10.90
2015,03,28,16,59,11.00
2015,03,28,17,00,11.00
2015,03,28,17,01,11.00
2015,03,28,17,02,11.00
2015,03,28,17,03,11.00
2015,03,28,17,04,11.00
2015,03,28,17,05,11.00
2015,03,28,17,06,10.90
2015,03,28,17,07,10.90
2015,03,28,17,08,10.90
2015,03,28,17,09,10.90
2015,03,28,17,10,10.90
2015,03,28,17,11,10.90
2015,03,28,17,12,10.80
2015,03,28,17,13,10.80
2015,03,28,17,14,10.80
2015,03,28,17,15,10.70
2015,03,28,17,16,10.70
2015,03,28,17,17,10.70
2015,03,28,17,18,10.70
2015,03,28,17,19,10.60
2015,03,28,17,20,10.60
2015,03,28,17,21,10.60
2015,03,28,17,22,10.60
2015,03,28,17,23,10.60
2015,03,28,17,24,10.60
2015,03,28,17,25,10.50
2015,03,28,17,26,10.50
2015,03,28,17,27,10.50
2015,03,28,17,28,10.50
2015,03,28,17,29,10.50
2015,03,28,17,30,10.50
2015,03,28,17,31,10.40
2015,03,28,17,32,10.40
2015,03,28,17,33,10.40
2015,03,28,17,34,10.40
2015,03,28,17,35,10.40
2015,03,28,17,36,10.40
2015,03,28,17,37,10.40
2015,03,28,17,38,10.40
2015,03,28,17,39,10.40
2015,03,28,17,40,10.40
2015,03,28,17,41,10.30
2015,03,28,17,42,10.30
2015,03,28,17,43,10.30
2015,03,28,17,44,10.30
2015,03,28,17,45,10.20
2015,03,28,17,46,10.20